GFSNGP_925_thetae_000.txt.gz
Theta_e
321 320 320 320 320 320 321 321 322 321 321 320 319 319 317 316 316 315 314 314 313 312 311 310 310 309 305 304 303 300 299 297 297 298 297 296 295 294 293 292 292 291 290 289
321 320 320 319 319 320 319 318 319 320 321 319 317 316 316 316 316 316 315 313 312 311 309 309 309 309 302 301 301 299 298 299 299 298 296 295 294 293 292 292 291 289 289 289
322 318 318 319 318 319 319 318 319 319 318 317 316 316 316 316 315 314 313 312 312 309 309 309 307 303 302 302 302 301 300 298 297 297 295 294 293 292 292 290 289 289 288 288
320 317 322 318 317 316 318 318 317 316 316 316 316 316 315 315 313 312 312 311 310 309 308 307 304 301 302 302 302 299 298 298 298 295 293 292 292 291 290 289 288 288 287 287
321 322 319 317 317 318 318 317 316 316 318 317 316 316 314 313 312 312 310 309 308 307 306 303 302 301 301 301 300 298 298 296 294 293 292 292 291 289 288 287 287 287 287 286
323 322 321 318 315 316 316 318 318 317 317 317 315 316 314 312 311 311 308 307 306 305 303 302 301 300 300 300 299 296 295 294 292 292 291 290 289 288 287 287 286 286 285 286
320 320 319 316 316 317 320 320 316 316 316 315 315 314 312 311 312 310 308 305 305 303 301 301 301 300 298 296 296 293 291 291 291 291 289 288 288 287 286 286 285 285 286 284
317 320 321 317 318 318 317 317 316 315 314 314 313 312 311 311 310 308 306 305 302 301 301 300 299 298 296 293 291 291 291 290 290 289 288 288 287 285 285 285 285 285 284 283
317 318 316 317 316 316 315 316 315 315 313 312 311 311 310 310 308 306 303 301 300 300 300 299 297 293 293 291 290 290 290 289 288 288 287 286 285 285 285 285 284 284 284 282
315 314 315 315 315 315 315 314 313 312 311 311 309 307 307 307 307 303 300 299 300 299 298 296 295 292 291 290 290 289 289 288 288 287 287 285 285 285 284 284 284 283 282 282
314 314 314 315 315 314 314 312 311 310 309 306 305 304 305 305 303 300 298 299 299 297 297 295 292 291 290 289 288 288 287 287 287 287 285 285 285 284 284 283 282 282 282 282
315 314 315 315 314 314 312 311 310 307 304 304 303 304 304 302 299 298 298 298 298 297 295 293 292 291 290 289 288 286 286 287 286 285 284 285 284 284 283 282 282 282 282 282
314 313 313 313 311 310 310 309 306 304 304 304 303 301 300 299 298 297 298 298 296 294 293 291 291 290 290 288 287 285 284 284 284 284 284 284 284 282 283 282 282 282 282 281
312 312 311 310 311 308 306 304 303 302 302 302 301 299 298 298 299 298 297 294 293 292 292 290 290 290 289 288 287 286 285 285 284 283 283 283 283 283 283 282 281 281 281 280
310 310 309 306 305 303 303 303 303 302 301 300 299 299 298 298 297 296 294 291 291 291 291 290 288 287 288 287 286 286 286 285 284 282 282 283 283 282 282 281 281 281 281 279
308 305 304 303 302 302 302 302 302 302 299 299 297 297 296 295 294 293 292 289 288 290 288 287 287 288 288 287 287 286 287 285 283 283 282 283 282 282 281 281 281 281 280 278
304 303 302 302 302 302 301 301 301 298 297 297 295 291 290 290 290 292 290 289 287 287 287 287 287 288 287 286 286 286 286 285 284 284 283 282 282 281 281 280 280 280 279 278
301 301 300 301 301 301 300 300 298 296 295 293 290 289 290 290 290 290 289 287 287 287 288 288 288 287 286 286 285 284 284 283 283 283 283 282 281 281 280 280 279 279 278 277
300 300 299 299 300 299 299 299 297 296 292 290 288 288 288 289 288 287 286 287 287 288 289 289 287 286 285 285 284 283 284 283 282 282 282 281 281 280 280 279 278 278 277 276
297 297 298 299 298 294 294 294 293 292 291 288 288 289 290 289 288 286 286 287 288 288 287 286 285 285 285 284 284 283 283 282 282 281 281 280 280 279 279 278 278 277 276 276
297 298 297 297 295 293 293 292 289 288 290 288 287 288 287 287 288 287 288 288 288 287 286 286 286 287 286 285 284 284 282 282 281 281 280 280 279 279 279 278 278 276 275 275
296 297 295 294 293 292 293 291 289 288 288 288 287 287 288 289 289 288 288 287 286 285 285 285 285 286 286 285 284 283 282 282 281 280 280 279 278 278 278 277 277 276 275 274
297 297 296 295 293 294 293 291 288 288 289 289 288 288 288 288 288 288 287 287 285 285 285 285 285 285 284 283 283 283 282 281 280 280 279 279 278 277 277 276 276 275 274 274
297 296 296 295 295 293 291 290 289 289 289 288 288 288 287 289 288 288 287 286 285 285 285 285 284 283 282 282 283 282 282 281 281 280 279 278 278 277 277 276 275 275 274 273
297 295 294 293 292 292 291 290 290 290 289 289 290 288 287 287 286 286 285 285 285 285 285 285 284 282 281 282 282 282 281 281 281 280 279 279 278 277 277 276 275 274 274 273
295 294 293 292 292 292 291 291 291 292 292 292 290 289 287 286 286 285 285 286 285 284 284 285 284 283 282 282 282 282 281 281 279 278 278 278 277 276 276 275 274 274 273 272
294 293 292 291 291 291 291 292 292 292 291 289 288 287 287 285 285 285 285 285 284 284 285 285 284 284 283 282 282 282 281 280 279 278 278 277 277 277 276 275 275 274 273 272

GFSNGP_925_thetae_006.txt.gz
Theta_e
316 317 318 319 319 319 319 316 315 315 315 314 313 313 312 311 311 312 311 310 308 307 306 307 307 307 305 303 302 302 302 296 294 295 295 295 294 294 296 295 293 293 292 290
318 317 318 319 318 316 316 316 314 314 313 314 313 312 313 312 312 312 310 309 308 308 307 307 306 305 303 302 301 301 300 299 298 297 297 296 296 294 295 294 292 290 289 287
317 313 314 318 315 314 313 313 312 313 312 314 314 314 313 312 311 311 309 308 307 307 307 306 304 303 301 301 301 300 300 298 299 298 296 294 294 295 294 290 288 287 286 286
311 312 320 315 312 313 313 313 312 315 314 313 314 313 312 311 311 309 308 308 307 306 305 304 303 301 301 300 299 300 299 298 298 297 295 293 291 289 288 287 286 286 285 285
313 316 314 314 314 314 313 313 313 314 315 313 312 311 310 309 309 309 308 307 306 304 303 302 300 301 300 298 298 294 291 291 291 292 291 289 288 287 287 286 285 285 285 285
311 315 316 310 310 313 314 314 313 314 313 313 312 314 312 309 307 306 306 303 302 301 301 300 299 297 294 291 291 290 291 291 291 289 288 287 287 286 285 284 284 284 284 283
299 310 307 308 310 313 309 311 311 311 312 313 314 312 310 308 306 305 301 300 300 299 299 299 298 295 290 290 290 291 290 289 288 288 287 287 286 285 284 284 284 283 282 282
308 311 314 311 312 312 309 308 310 310 309 311 310 308 306 305 304 300 299 298 298 299 298 298 295 292 290 291 293 289 288 288 287 287 287 285 285 284 284 283 283 282 281 281
308 309 308 309 311 308 310 310 309 310 311 308 307 306 305 301 300 299 298 297 297 298 297 296 292 292 292 290 289 288 287 286 286 286 286 284 284 284 283 282 282 282 281 281
310 311 310 309 310 310 308 308 310 310 308 307 305 305 301 300 298 297 297 296 297 297 296 295 292 290 290 289 289 288 287 286 286 285 284 284 284 283 282 282 282 282 281 280
312 312 310 309 308 308 310 310 307 306 305 305 303 302 300 298 297 296 296 296 297 296 294 294 290 290 290 289 289 288 286 285 285 284 283 283 283 283 282 282 282 281 281 281
313 311 310 310 310 307 307 305 303 302 302 300 301 300 299 297 296 296 296 297 295 295 292 291 290 290 289 289 289 288 287 286 285 284 284 283 282 282 282 282 280 280 281 280
312 311 310 309 307 305 304 304 304 303 302 300 301 300 298 296 297 298 297 296 294 293 292 291 290 289 289 289 288 288 287 286 286 285 284 282 282 282 281 281 279 279 280 279
310 309 309 306 305 303 302 301 301 300 301 300 299 299 298 297 297 296 295 295 293 291 290 291 290 289 288 288 288 288 287 286 285 284 283 282 282 281 280 280 279 279 278 277
308 305 304 303 301 300 300 300 300 299 300 299 299 298 296 295 293 292 291 291 290 289 289 289 288 287 288 288 288 287 286 284 284 283 283 283 282 281 280 279 278 278 277 276
303 301 301 301 300 300 300 298 299 298 297 297 295 295 294 292 290 289 290 290 289 288 287 287 287 287 288 288 287 286 285 285 284 282 282 282 281 281 280 279 278 278 276 275
300 302 300 297 296 296 297 296 294 293 295 295 295 294 290 289 289 288 287 288 287 286 287 287 286 286 287 287 286 285 284 284 283 282 282 281 280 280 279 278 277 277 275 275
298 296 295 295 295 295 293 294 293 292 291 291 290 289 288 287 285 287 287 286 287 287 286 286 285 284 285 285 284 284 284 284 283 281 281 280 280 279 279 278 276 276 275 274
295 295 295 295 294 294 292 292 292 292 292 291 289 288 287 287 288 287 286 287 287 286 286 285 284 284 285 285 285 284 283 283 282 282 280 280 279 279 278 278 276 275 274 274
296 295 295 295 295 293 291 292 291 291 292 292 290 288 286 288 287 287 286 286 286 285 284 284 284 284 285 285 285 284 283 282 282 281 280 279 279 278 277 277 276 275 274 273
293 295 295 293 292 293 292 290 290 291 291 291 289 288 287 287 287 287 287 285 285 284 284 284 284 284 284 283 284 283 283 282 281 280 280 279 278 277 277 277 275 274 274 273
294 293 293 293 291 292 295 294 292 292 291 290 288 288 287 287 288 287 287 286 285 284 284 284 284 283 283 282 282 283 282 282 281 280 280 279 278 277 276 276 275 274 274 273
294 294 293 292 291 292 294 291 291 290 290 290 288 288 287 288 287 287 284 286 285 284 284 284 284 283 282 282 282 282 282 282 281 281 280 279 277 277 276 276 275 274 273 273
292 292 292 293 292 290 289 292 292 291 291 290 288 288 288 286 287 286 286 285 284 284 284 284 284 284 283 282 282 282 282 281 281 281 280 279 278 277 276 276 275 274 273 273
292 291 291 291 289 289 291 292 291 291 290 289 289 288 288 287 286 285 284 284 285 284 284 284 284 284 284 282 282 282 282 281 280 280 279 279 278 277 276 276 274 274 273 272
291 291 291 292 291 292 292 292 290 290 289 288 289 288 288 287 285 284 283 284 284 284 284 283 284 284 284 284 283 282 282 281 280 279 279 278 278 277 276 276 274 274 273 272
291 291 290 290 291 292 292 291 290 289 290 289 289 289 288 287 285 284 283 283 283 283 283 283 283 283 283 283 284 283 282 281 281 280 279 278 278 277 277 276 275 274 273 272

GFSNGP_925_thetae_009.txt.gz
Theta_e
314 314 315 317 317 318 318 316 318 316 315 314 312 313 311 310 310 310 310 309 308 308 306 307 307 306 305 303 301 300 300 299 295 293 293 293 295 295 295 294 293 293 292 290
315 315 316 317 316 316 316 316 315 313 313 310 313 312 312 311 311 310 309 309 308 306 306 306 306 305 304 302 300 300 300 298 297 297 296 295 295 293 293 293 292 289 287 286
311 311 310 310 311 314 314 312 312 312 310 312 313 312 311 311 310 309 308 308 306 305 305 306 304 303 301 300 300 299 299 299 298 297 297 296 295 293 290 289 287 286 285 285
305 313 315 312 311 311 311 311 310 310 313 312 312 311 310 309 309 308 307 306 305 305 304 302 302 300 299 299 298 297 293 292 293 293 293 292 290 288 287 286 285 284 284 284
313 313 310 313 311 313 312 311 311 313 313 312 310 308 308 307 307 305 304 304 304 302 300 300 300 297 293 291 291 291 291 291 292 292 290 289 287 286 285 284 284 284 284 283
310 314 316 310 308 310 313 314 311 313 312 310 309 312 311 308 304 303 302 303 300 300 299 299 299 293 295 293 292 292 293 291 289 288 287 287 286 285 284 284 284 283 283 282
307 309 307 306 307 309 313 312 308 310 310 308 310 310 308 304 303 303 302 301 299 297 298 298 296 294 292 290 292 290 289 288 287 287 286 286 285 284 284 284 283 282 281 281
307 310 310 308 311 312 310 307 308 307 306 307 308 306 303 302 303 301 299 298 297 296 298 297 294 293 291 290 289 289 288 287 286 286 286 285 284 284 283 282 282 281 281 280
307 309 307 306 310 307 307 307 307 307 309 308 305 303 301 302 301 299 298 297 296 296 297 296 293 290 290 289 289 288 287 286 285 285 284 284 284 283 283 282 282 282 281 280
309 310 309 309 309 310 308 307 309 306 304 301 300 300 300 301 298 297 296 296 296 296 296 295 294 291 291 289 289 288 287 286 285 284 283 284 283 282 282 282 282 281 281 280
312 312 311 310 309 308 309 306 302 301 301 301 301 300 299 298 297 296 295 296 297 295 294 294 293 291 290 289 288 288 287 286 285 284 284 284 282 282 282 282 281 281 280 280
314 311 311 311 308 305 304 303 302 302 301 301 300 299 299 297 298 296 295 296 297 295 295 292 291 290 290 289 288 288 287 287 286 285 285 284 282 282 282 281 281 279 280 280
312 310 311 309 303 302 302 302 302 303 302 300 300 299 299 297 297 296 297 296 294 294 293 291 290 290 289 288 288 288 287 286 285 285 284 283 282 282 281 280 279 278 278 278
309 309 309 304 303 301 301 300 300 299 299 300 299 298 297 296 296 294 292 291 290 290 289 289 289 288 287 287 287 287 287 286 284 284 283 283 282 281 280 280 278 278 277 276
305 304 303 301 301 300 298 298 299 298 297 297 297 296 295 293 292 291 290 289 289 289 287 286 286 287 286 287 287 286 286 285 284 283 282 282 282 281 280 279 278 277 276 276
301 301 301 300 299 297 296 295 296 295 293 293 294 293 292 291 290 289 288 287 288 286 286 285 286 286 286 286 286 286 284 284 283 282 282 281 280 280 279 279 277 277 275 275
298 300 296 294 293 293 293 293 293 292 291 291 291 289 291 290 288 287 287 287 286 286 285 286 285 285 285 285 285 284 284 284 283 282 281 280 280 279 279 278 277 276 275 274
295 294 295 294 293 293 292 293 292 291 290 292 291 289 288 288 286 286 287 287 287 286 286 285 284 284 285 284 284 284 283 283 282 281 281 280 279 279 279 278 276 275 274 274
297 296 297 296 295 293 292 292 292 290 290 291 290 289 289 288 286 285 285 286 286 285 284 283 283 284 284 284 284 284 284 283 281 281 280 280 279 278 278 277 276 275 274 273
293 294 295 295 295 294 292 293 291 290 289 289 288 288 287 288 287 286 286 285 285 284 284 283 283 284 283 283 283 284 283 282 281 281 280 279 278 278 277 277 275 274 274 273
291 292 292 292 292 293 292 291 291 291 293 290 288 288 288 288 286 287 286 285 285 284 283 283 283 283 283 282 282 282 283 282 281 281 280 279 278 277 277 276 275 274 273 273
291 291 291 292 291 290 292 291 291 292 291 290 289 289 287 287 287 287 287 286 285 284 284 283 283 283 282 282 282 282 282 282 282 281 280 279 278 277 276 276 275 274 273 273
291 291 291 291 290 290 290 290 290 291 290 289 290 288 287 287 287 286 285 286 285 285 284 283 283 283 282 282 282 282 282 282 281 281 280 280 279 277 277 276 275 274 273 273
291 291 290 291 290 288 287 291 291 291 291 291 290 288 288 287 287 287 286 285 284 284 284 284 283 284 283 282 282 282 282 282 281 280 280 280 279 278 277 276 275 274 273 273
291 290 290 289 288 289 289 290 290 290 290 290 288 288 288 288 287 286 285 284 284 284 284 283 284 284 283 283 283 282 282 282 281 280 279 279 278 278 277 276 275 274 273 272
290 290 290 289 289 289 289 289 289 289 290 288 288 289 288 288 287 285 284 283 284 283 283 283 283 283 283 283 283 283 283 282 281 281 280 279 278 277 277 276 275 274 274 273
290 289 289 290 290 290 290 290 290 290 290 289 288 289 289 288 286 285 284 283 283 283 283 283 282 282 282 282 282 283 283 283 282 281 280 279 279 278 277 277 276 275 274 272

GFSNGP_925_thetae_012.txt.gz
Theta_e
312 313 313 315 315 315 315 314 318 316 314 314 312 309 311 310 309 311 310 308 307 306 307 305 305 305 304 303 301 300 299 299 296 295 294 295 295 295 295 295 294 293 293 290
313 311 312 313 313 314 314 314 314 315 315 310 308 311 311 310 310 310 308 307 306 305 304 304 305 303 301 300 299 299 299 298 298 298 297 296 294 293 293 292 292 290 286 285
309 309 309 307 309 312 313 312 312 312 310 309 312 310 310 310 308 308 306 306 302 302 303 304 301 300 299 299 298 298 294 293 292 292 292 292 292 291 289 287 286 285 285 284
306 311 311 311 309 310 311 309 309 308 308 310 310 308 307 307 307 305 303 303 302 302 302 300 299 298 297 294 293 292 291 292 293 293 291 289 288 287 286 285 285 284 284 284
315 314 309 312 309 312 312 309 309 310 312 310 308 306 307 305 304 303 302 301 301 301 299 297 297 294 291 292 292 292 293 293 291 288 288 287 287 286 285 284 284 283 283 282
309 313 314 309 307 307 311 312 310 312 310 310 307 310 310 304 303 302 301 302 301 299 297 297 298 295 293 294 293 291 290 289 288 287 286 286 285 284 284 283 283 282 282 281
309 312 310 306 306 308 312 312 308 310 308 307 307 307 302 300 300 299 300 301 299 297 296 298 297 295 293 291 290 289 289 287 286 286 286 285 284 284 283 283 282 282 281 281
305 310 310 306 308 311 310 307 307 306 306 308 305 302 301 299 299 299 300 299 297 296 296 297 296 292 290 288 290 290 287 286 285 285 285 284 283 283 283 282 281 281 281 281
310 308 306 306 309 307 306 306 306 307 306 303 301 300 300 299 298 299 299 297 296 295 296 296 295 293 292 294 292 288 287 286 285 285 284 283 283 282 282 282 282 281 281 280
310 310 309 310 309 308 306 307 304 303 301 301 301 300 299 299 298 298 298 296 295 295 296 295 293 294 292 290 289 288 287 286 286 285 285 284 284 282 282 282 281 281 280 279
310 312 310 309 307 307 304 303 303 302 301 300 299 299 298 297 296 297 297 296 296 296 295 294 294 292 292 290 289 288 287 286 286 286 285 285 284 282 282 282 281 281 280 279
313 311 311 312 307 305 304 302 302 302 300 300 300 298 297 296 297 296 296 296 295 296 294 293 293 291 290 289 288 288 287 287 286 285 285 284 283 282 282 281 280 279 279 278
312 311 310 306 303 302 302 302 301 299 300 299 298 298 296 295 295 295 295 294 292 290 290 289 289 288 288 288 287 288 287 286 285 285 284 282 282 282 280 280 280 278 277 277
308 309 307 305 303 301 300 298 297 297 297 297 296 295 295 293 293 293 292 291 289 289 289 287 287 286 286 286 287 287 286 286 285 284 282 282 282 281 280 279 278 277 277 276
304 301 301 301 299 297 295 295 294 293 294 294 294 293 293 291 291 291 291 289 289 288 287 286 286 286 286 286 286 286 286 285 284 283 282 281 281 280 280 279 278 277 276 275
300 300 298 295 294 293 293 292 293 292 292 292 292 291 291 289 289 290 289 287 287 286 285 284 285 284 285 285 285 285 284 283 283 283 282 281 280 280 279 278 278 276 275 274
297 295 295 294 293 293 292 291 291 291 291 291 291 290 288 287 288 289 289 286 286 285 285 285 284 283 284 284 284 284 284 283 283 282 281 280 280 279 279 278 277 276 275 274
295 295 294 294 293 292 291 292 292 292 290 291 288 287 288 288 286 288 287 286 286 285 286 285 283 283 283 283 284 283 283 283 282 281 281 280 279 279 278 277 276 275 275 273
294 294 293 293 294 293 292 292 292 292 291 290 288 287 287 287 287 287 285 284 285 284 284 283 283 283 283 283 283 283 283 283 282 281 280 280 279 278 277 277 276 275 274 273
292 292 292 292 292 292 290 291 291 290 290 290 291 289 289 289 288 286 286 285 285 285 284 283 283 283 283 282 282 282 282 282 282 281 280 280 279 278 277 276 276 275 274 273
290 291 291 290 290 291 290 290 289 288 290 289 289 290 289 288 288 286 285 284 286 285 284 283 283 283 282 282 281 281 282 283 282 282 281 280 279 278 277 276 275 275 274 273
291 290 289 290 289 288 290 290 289 289 289 289 290 289 289 288 286 286 286 286 287 285 284 284 283 283 283 282 281 281 282 282 282 281 280 280 279 278 277 276 276 275 274 273
290 290 290 289 289 289 289 289 289 289 289 288 289 289 289 288 287 286 284 287 286 285 284 284 283 283 283 282 282 281 282 282 282 282 280 280 280 279 278 277 276 275 274 273
290 290 290 290 289 288 286 288 289 289 289 289 289 289 288 287 287 287 287 286 285 284 284 284 283 283 284 283 283 282 281 281 282 281 280 279 279 278 278 277 276 275 274 273
290 290 289 289 288 289 288 288 288 288 289 288 289 290 288 288 288 287 287 285 284 284 284 284 283 283 283 284 283 282 282 282 282 281 281 280 279 278 277 277 276 275 274 273
289 289 289 289 288 288 289 288 288 289 289 289 289 289 288 288 287 286 286 285 284 283 283 283 283 283 282 282 282 282 282 282 282 282 281 280 279 279 278 277 276 276 274 274
288 286 286 287 288 289 289 289 289 290 290 290 289 289 288 288 287 286 285 284 283 283 283 283 283 282 282 282 281 281 281 281 282 282 282 281 280 280 279 278 277 276 275 274

GFSNGP_925_thetae_015.txt.gz
Theta_e
314 314 314 315 315 315 317 317 319 317 316 316 315 313 312 312 312 311 311 311 309 306 304 304 304 303 301 300 299 299 299 298 297 297 296 296 295 293 293 293 293 293 291 287
315 312 312 313 313 314 315 316 316 316 317 314 311 312 313 311 310 311 310 307 304 303 302 302 303 300 299 298 298 298 297 296 293 293 293 293 293 293 293 291 287 286 285 285
314 310 311 313 310 313 314 313 314 315 313 311 312 313 312 311 310 308 304 303 301 301 301 302 300 298 298 296 295 294 294 293 293 293 292 291 289 288 287 286 285 285 285 284
316 310 317 313 310 311 312 312 311 310 310 310 312 311 309 307 306 304 302 300 301 301 302 300 297 297 296 294 294 293 293 293 292 290 288 287 287 286 286 285 285 284 284 284
315 315 313 313 311 312 313 312 310 311 312 312 312 311 310 304 303 302 300 301 300 302 299 297 297 297 292 291 292 292 292 290 288 288 287 287 286 285 285 284 284 284 283 282
312 316 318 314 308 307 311 315 311 312 312 312 310 312 312 302 301 301 300 300 301 300 297 296 297 297 294 293 293 290 290 289 287 286 286 286 285 284 284 284 283 283 282 282
313 313 313 310 308 307 316 316 309 310 311 310 310 307 302 301 301 300 299 299 300 297 296 296 296 296 294 291 290 290 291 288 286 285 285 285 284 284 283 283 283 282 282 281
309 311 314 306 308 313 312 310 309 309 308 309 305 303 301 302 301 299 299 299 299 297 296 296 296 294 292 292 292 291 291 288 286 285 285 284 284 284 283 283 283 282 281 281
312 314 309 306 310 309 307 307 308 308 304 303 302 302 302 301 300 300 299 299 297 296 295 296 295 294 292 293 293 292 290 287 286 286 285 284 284 284 283 283 282 282 282 281
311 313 311 310 311 308 308 306 304 303 303 303 303 302 301 301 300 299 298 297 296 295 295 296 295 294 293 292 291 289 288 287 286 286 285 285 284 284 283 283 282 281 281 280
311 312 312 310 308 308 305 304 303 303 302 302 301 301 301 300 298 297 296 295 295 295 295 295 294 293 292 290 290 288 287 287 286 285 284 284 283 283 282 282 281 281 280 279
315 313 312 311 307 305 304 303 302 302 300 299 299 300 298 297 296 295 294 294 294 294 293 290 289 289 288 288 288 287 287 286 286 285 284 283 282 282 281 280 280 279 278 278
313 310 310 305 304 302 302 301 298 297 296 297 297 296 295 294 294 294 293 292 292 291 289 288 287 287 286 286 286 286 286 286 285 285 284 283 282 281 281 280 279 278 277 276
307 308 306 304 302 300 296 295 295 294 294 294 294 294 293 293 293 292 292 291 290 289 288 287 286 286 286 286 286 286 285 285 285 284 283 282 281 280 279 279 278 278 276 275
301 301 299 296 296 295 294 294 294 294 293 293 293 293 293 293 292 291 290 290 289 287 287 286 284 285 284 284 285 285 285 284 283 283 282 281 280 280 279 278 278 277 276 275
296 296 296 296 296 295 295 295 294 293 293 293 293 292 291 290 289 288 289 288 286 287 285 284 285 283 283 284 284 284 284 283 283 282 282 281 280 279 279 278 277 277 276 274
297 297 296 296 295 295 294 294 293 292 292 292 291 290 288 288 288 287 287 287 286 286 286 285 285 283 283 283 283 283 283 283 282 282 281 280 279 279 278 277 277 276 275 273
295 295 294 293 293 293 293 293 292 291 291 291 290 290 289 287 288 288 287 286 285 285 285 285 284 283 283 283 283 283 283 283 282 281 280 280 279 278 277 276 276 275 275 274
292 292 291 291 291 291 291 291 290 290 290 289 288 288 289 289 289 289 287 285 284 284 285 283 283 283 282 283 282 282 282 282 282 281 280 280 279 278 277 276 276 275 274 273
291 291 291 291 291 290 289 289 289 288 289 288 288 286 288 290 290 288 288 285 285 285 284 283 283 282 283 282 282 281 281 281 282 282 281 280 278 278 277 276 275 275 274 273
289 290 290 289 289 289 289 289 288 287 288 287 285 286 288 290 289 289 285 285 286 286 284 284 283 283 283 282 281 281 281 282 282 282 281 280 279 278 277 276 276 275 274 273
290 290 289 289 288 288 289 289 288 287 287 287 287 287 289 289 289 288 287 286 286 286 284 284 284 283 282 282 282 281 281 282 282 282 281 280 279 278 278 277 276 275 274 273
289 289 289 289 288 288 289 289 289 288 288 287 286 286 287 288 289 287 287 287 287 286 284 284 284 283 282 282 283 282 281 281 282 282 281 280 279 278 278 277 276 276 275 274
289 289 289 289 289 287 286 289 289 288 287 287 288 289 288 287 287 287 287 287 286 285 284 284 284 283 282 283 283 283 282 281 281 281 281 280 280 279 278 277 277 276 275 274
290 289 289 288 287 288 288 288 287 288 288 288 289 289 289 289 287 287 287 286 285 284 284 284 284 283 283 282 282 281 280 280 281 281 281 281 280 279 279 278 277 276 275 274
289 288 288 287 286 286 287 287 287 288 288 288 289 290 289 288 287 287 286 286 285 284 283 283 283 283 282 282 282 281 281 280 281 281 281 281 281 280 279 279 278 277 276 275
288 288 288 287 287 287 287 287 288 288 288 288 289 289 289 287 287 287 286 285 284 283 283 282 282 283 282 281 281 281 280 279 279 280 280 280 280 280 280 279 278 277 276 275

GFSNGP_925_thetae_018.txt.gz
Theta_e
317 316 316 317 316 316 317 318 319 319 317 316 315 315 315 315 314 313 313 312 311 309 305 304 304 304 302 300 299 300 300 299 298 297 295 296 295 294 294 293 293 291 290 289
317 316 315 317 316 316 316 317 317 317 317 315 313 314 315 314 313 312 312 309 307 304 302 302 303 302 299 299 299 298 297 297 296 295 295 294 293 292 291 290 289 289 288 288
323 315 316 321 316 316 316 315 316 317 315 314 314 314 314 313 312 311 309 307 305 303 302 303 303 299 299 298 297 297 296 295 295 295 293 291 291 289 289 288 288 288 288 287
322 319 325 316 314 314 315 314 314 314 314 314 314 314 313 311 310 307 305 304 303 302 302 303 300 299 298 297 296 296 296 295 293 292 291 290 289 288 288 288 287 287 287 286
319 319 317 315 314 314 314 315 314 314 314 315 314 313 312 306 303 303 304 302 301 301 302 302 299 298 298 297 296 296 295 294 293 291 290 288 288 288 288 287 287 287 286 285
317 320 320 316 312 311 314 316 314 315 314 313 313 316 313 303 303 303 302 301 300 300 302 301 299 298 298 297 296 295 294 293 292 290 288 288 288 288 287 287 286 286 285 285
317 318 317 314 312 311 317 319 313 312 311 311 312 307 304 303 303 302 301 301 299 300 301 300 299 298 297 295 294 293 292 293 292 290 288 288 288 288 287 287 286 285 284 284
315 315 318 312 312 316 315 313 313 312 309 308 305 305 304 303 302 302 301 301 299 299 298 299 298 298 297 295 294 293 293 293 291 289 288 288 288 288 288 287 286 285 284 284
316 318 314 313 313 313 313 313 310 308 305 305 305 303 303 302 301 300 300 300 299 298 297 297 297 297 297 295 295 294 293 293 291 289 288 288 288 288 287 286 285 284 283 283
315 314 314 315 314 313 311 307 305 305 305 303 302 301 301 300 300 300 299 298 297 296 296 296 296 297 296 295 294 293 292 291 290 289 288 288 288 287 286 285 284 283 282 282
316 315 314 314 312 310 306 305 304 302 301 301 299 299 299 299 298 297 297 296 296 294 294 294 294 293 293 292 291 291 291 290 290 289 289 288 287 285 284 283 281 281 281 280
317 315 313 311 308 306 304 303 301 300 298 297 297 297 296 296 295 295 295 295 294 293 293 293 292 291 291 289 288 289 289 289 289 288 288 287 286 285 284 282 280 278 278 277
312 311 310 307 304 302 302 299 297 297 298 298 296 295 295 295 295 294 294 294 294 293 292 291 291 290 289 288 287 286 287 288 288 287 286 285 285 284 283 283 281 279 278 276
308 309 307 303 303 299 297 298 297 296 296 295 295 295 295 295 294 294 294 294 294 293 292 291 289 288 288 287 286 285 286 285 286 286 285 285 284 283 282 282 281 281 279 276
302 303 301 299 299 299 297 296 296 296 295 296 295 295 296 295 295 294 293 293 292 291 291 290 288 287 286 285 285 285 285 285 285 285 284 283 283 282 282 281 281 280 279 277
300 300 299 298 297 296 295 295 295 295 295 294 294 293 293 293 293 292 291 289 289 288 287 286 286 285 284 285 285 285 284 284 283 284 283 283 282 282 281 281 280 280 279 277
299 299 297 295 295 294 295 294 294 294 293 293 293 293 292 291 290 290 290 289 288 286 285 285 285 285 284 284 284 284 284 284 283 283 283 282 282 281 281 280 280 279 278 276
296 295 294 294 294 295 294 293 293 293 293 292 290 290 289 290 290 290 290 289 288 286 285 285 285 284 283 284 283 283 284 284 284 283 282 282 282 281 280 280 280 279 278 277
293 293 293 293 294 293 293 293 292 291 290 290 289 289 289 288 289 290 290 289 288 287 288 285 283 283 283 283 283 283 283 283 283 283 283 282 282 281 281 280 280 279 278 277
293 293 293 293 292 291 291 290 290 290 290 289 289 288 289 289 289 289 290 290 289 288 286 284 283 283 283 283 282 282 282 283 283 283 283 282 282 281 281 280 279 279 278 277
292 293 292 291 291 290 290 290 289 289 289 288 287 288 288 287 288 290 290 290 290 287 286 284 284 284 284 283 283 283 283 283 283 284 283 283 282 281 281 280 279 279 278 277
292 292 291 290 290 290 290 290 290 289 288 288 288 287 287 288 289 290 289 289 289 287 286 285 286 285 283 282 283 283 283 283 283 283 283 283 282 281 281 281 280 279 278 277
291 292 291 290 290 291 290 289 289 289 288 288 288 288 288 289 288 289 290 289 288 287 286 286 285 284 283 282 283 283 283 283 283 283 283 282 282 281 281 280 280 279 278 277
292 292 291 290 289 289 290 290 289 289 288 288 288 288 288 289 289 289 288 287 287 286 286 285 284 284 283 282 283 283 283 283 283 283 283 282 282 281 281 280 279 279 278 276
291 291 290 289 290 292 291 290 288 289 289 289 288 288 289 290 288 288 287 287 286 286 285 284 284 284 283 283 283 283 282 282 282 282 282 282 282 282 281 280 279 279 278 277
291 292 292 291 291 290 290 290 289 288 289 289 288 288 288 289 288 287 287 287 286 285 285 284 283 283 283 283 282 282 281 281 281 281 281 281 281 282 281 281 280 279 278 277
291 291 290 291 292 291 290 289 287 288 288 288 288 288 288 288 288 287 287 287 286 285 284 284 283 283 283 283 282 282 281 281 280 279 279 280 280 280 280 280 280 279 278 277

GFSNGP_925_thetae_021.txt.gz
Theta_e
319 317 316 316 316 316 317 317 320 319 319 318 317 316 316 316 315 315 314 313 313 311 309 306 304 304 304 302 301 299 299 299 298 298 297 296 296 295 294 293 291 291 290 290
319 317 315 316 315 316 316 317 318 317 318 317 316 315 316 315 314 314 313 312 309 306 305 303 303 304 302 301 300 298 298 298 297 297 296 295 294 293 292 290 290 290 290 289
322 318 319 324 318 316 316 316 317 318 317 316 316 316 315 314 313 314 311 308 305 304 304 303 303 303 301 300 299 298 297 297 296 295 294 294 292 291 290 290 289 289 289 289
323 320 327 319 316 316 316 315 315 315 315 315 315 315 314 312 311 310 308 306 306 304 303 302 302 302 300 299 299 298 297 297 296 295 294 293 291 290 290 289 289 289 289 288
322 321 317 317 316 316 315 316 315 316 316 316 315 314 313 309 309 308 307 305 304 302 301 300 301 301 300 299 298 297 296 296 295 294 293 292 290 290 289 289 289 289 288 288
320 323 322 318 315 313 315 318 317 316 316 315 314 316 313 307 307 306 304 303 302 301 300 300 300 300 299 299 298 297 296 295 294 294 293 291 290 290 289 289 289 288 288 286
319 321 318 315 314 314 318 320 316 315 313 312 312 310 308 306 305 304 303 302 301 301 300 299 298 298 298 298 298 297 296 295 294 294 293 291 290 290 289 289 288 288 287 286
318 318 319 314 314 318 317 316 314 313 310 307 307 307 306 304 303 302 301 301 301 300 299 298 297 297 296 297 297 297 296 296 295 294 292 291 290 290 289 288 288 287 286 285
318 319 316 315 315 315 314 315 313 310 307 307 306 304 303 302 301 301 300 299 299 298 297 296 295 295 295 295 295 295 295 295 294 293 291 291 290 289 288 288 287 285 284 284
318 315 315 315 315 314 312 310 308 306 306 304 304 302 301 301 300 298 297 297 296 296 296 295 294 294 293 293 293 293 292 292 293 292 291 290 289 288 287 287 285 284 283 283
319 316 315 315 312 310 309 307 307 304 303 302 300 300 299 298 297 296 296 296 295 295 295 294 294 293 293 292 292 291 291 290 290 291 290 290 288 288 286 286 284 282 281 280
319 316 314 313 309 308 308 306 304 302 301 300 299 298 297 297 296 296 295 295 295 294 294 294 293 293 292 291 290 289 289 289 290 290 289 288 287 286 285 284 283 281 279 278
316 313 313 309 307 306 305 302 300 300 299 299 297 297 297 296 296 295 295 295 294 294 294 294 293 292 290 290 289 287 287 287 287 288 287 286 286 285 285 284 283 282 280 278
310 310 308 307 307 303 300 300 299 298 297 296 296 296 295 295 294 294 294 294 294 293 293 292 291 291 290 289 288 287 286 286 286 286 286 286 285 284 284 283 283 283 281 279
306 306 307 304 302 301 299 298 297 297 296 295 294 294 294 294 294 294 294 294 293 291 291 291 290 289 288 287 286 286 285 286 285 285 285 284 284 284 283 283 283 283 282 281
304 303 302 301 299 298 297 297 296 296 295 294 294 294 294 293 293 293 293 293 292 291 289 288 287 287 287 286 286 286 286 285 284 284 285 284 283 283 283 283 282 282 281 280
303 302 300 298 297 297 296 296 295 294 294 294 293 293 291 291 291 292 292 291 291 290 289 287 286 287 286 285 286 285 285 285 284 284 285 284 283 284 283 282 282 282 281 279
299 297 296 296 296 296 296 294 294 293 293 293 291 290 290 290 290 290 290 290 290 290 289 287 286 286 285 285 285 284 284 284 284 285 284 284 284 282 283 282 282 282 281 280
296 295 295 295 295 295 294 294 293 293 292 291 291 290 290 290 290 290 289 290 290 290 290 288 286 284 285 284 283 284 284 284 284 284 285 284 284 284 283 283 282 281 281 280
294 294 294 294 293 293 293 293 292 292 292 291 291 290 290 289 289 288 289 289 290 291 289 288 285 285 285 284 283 283 283 284 284 284 285 285 284 284 283 282 282 281 281 280
293 293 293 294 294 292 291 291 291 291 291 290 290 289 288 288 288 288 289 291 291 290 288 287 285 286 286 285 284 284 284 284 284 285 285 285 284 284 283 283 282 282 281 280
293 293 293 292 292 292 292 292 292 291 290 289 289 288 289 289 289 289 289 290 290 290 288 287 287 286 286 284 284 284 284 284 284 284 284 284 284 284 283 282 282 282 281 280
292 292 293 293 292 293 293 291 291 290 290 289 289 289 289 289 289 290 291 290 289 289 288 287 287 286 285 283 283 283 283 284 284 284 284 284 284 283 282 282 282 281 280 280
293 293 293 293 292 292 292 293 293 291 290 289 289 289 289 289 289 289 290 289 288 287 287 287 287 286 284 283 283 283 284 284 284 283 283 283 284 283 283 282 281 281 280 280
293 293 293 293 293 293 293 293 292 292 291 290 290 290 289 288 288 288 289 288 288 287 287 286 285 284 284 284 283 283 283 283 283 283 282 282 283 283 283 283 282 281 280 280
293 293 293 293 293 293 293 293 293 291 290 289 290 289 289 288 288 288 288 288 287 287 286 286 285 284 284 284 284 283 283 283 282 282 282 281 281 282 282 282 282 282 280 279
293 293 293 294 293 293 293 293 290 289 288 288 288 288 288 288 288 287 287 288 287 287 287 286 286 285 284 284 283 283 282 282 282 281 281 280 280 280 280 280 280 281 281 280

GFSNGP_925_thetae_024.txt.gz
Theta_e
319 316 316 316 316 316 317 317 319 319 317 317 318 317 317 316 315 315 314 314 311 310 308 307 305 304 304 304 302 301 300 299 299 298 297 297 296 296 294 293 291 291 290 290
321 316 315 316 316 316 316 316 316 317 318 317 317 316 316 316 315 314 314 311 309 307 306 305 304 303 304 303 301 300 299 299 298 298 297 296 295 294 293 291 290 290 290 290
325 319 320 326 321 316 316 316 317 319 318 316 317 316 315 314 314 313 311 309 308 307 306 304 303 302 302 302 301 300 299 299 298 298 297 295 294 293 291 290 290 290 289 289
323 320 324 318 315 316 316 316 315 316 316 316 315 314 313 312 311 310 309 308 307 305 304 303 301 301 301 301 301 301 299 299 298 297 296 295 294 292 291 290 290 290 290 289
326 322 318 317 317 317 316 316 316 318 316 315 314 312 311 310 308 307 307 306 304 303 303 302 301 300 299 299 298 298 299 298 296 296 295 295 294 292 290 290 290 290 289 288
320 320 321 320 316 315 315 318 318 317 316 314 312 313 312 308 307 305 304 303 303 302 302 301 300 299 298 297 297 297 297 297 296 296 295 294 293 291 290 290 290 289 288 287
319 317 319 315 316 315 317 320 317 315 313 311 311 309 308 306 305 303 302 301 300 300 300 299 298 297 296 296 295 295 295 296 296 296 295 294 292 291 290 290 289 288 287 286
317 319 319 315 315 318 318 317 315 313 311 309 308 308 306 304 302 301 300 299 298 297 297 297 296 295 295 294 294 294 294 294 294 295 294 293 291 290 290 289 288 287 286 285
320 320 318 317 317 316 315 313 312 311 309 307 307 304 302 302 301 299 298 297 296 296 296 295 295 295 294 294 294 293 293 293 292 293 293 292 291 290 289 288 287 285 284 284
321 317 316 316 315 313 311 310 309 308 307 304 304 302 301 300 299 298 297 297 296 295 295 296 295 295 294 293 292 292 291 291 291 291 291 291 290 289 288 287 286 285 284 282
320 318 317 316 314 311 310 309 308 305 304 302 301 301 299 299 298 297 297 296 295 296 295 295 294 294 293 292 292 291 290 289 289 290 290 290 289 287 286 286 285 283 282 281
321 318 317 316 311 309 309 308 305 302 301 301 299 299 298 298 297 296 295 295 295 295 294 294 294 293 292 291 291 289 288 288 288 287 288 288 287 286 286 285 284 283 282 280
316 315 314 312 309 308 307 304 301 301 300 298 297 297 296 295 295 294 294 294 294 294 294 293 293 292 291 291 289 289 287 287 286 286 287 286 286 286 285 284 284 284 283 281
312 311 310 308 308 306 302 302 300 298 297 297 296 295 294 294 294 294 294 294 294 294 294 292 291 291 290 290 289 287 286 286 286 286 285 285 284 284 284 284 284 284 283 282
310 310 309 307 304 303 301 298 298 297 296 295 294 294 294 294 293 293 293 293 293 293 293 292 290 289 287 288 287 287 287 286 285 284 284 284 284 284 284 284 283 283 283 282
307 305 304 303 301 299 298 297 297 296 295 294 294 294 294 292 292 291 292 291 290 290 290 291 290 288 287 287 287 286 287 286 285 284 285 285 285 283 283 284 283 283 283 282
306 304 302 300 298 297 297 297 296 295 294 294 294 293 291 291 290 291 290 290 289 289 289 290 290 287 287 287 286 286 285 285 285 284 284 285 284 284 284 283 283 283 282 281
302 300 298 297 297 297 298 296 295 294 294 293 292 292 291 291 290 290 289 289 289 289 290 290 290 287 286 286 285 285 284 284 284 285 285 285 284 283 283 283 283 283 282 281
297 297 296 296 296 296 295 294 294 293 292 292 292 292 291 290 289 289 288 288 288 289 290 291 289 287 285 285 284 284 284 284 284 283 284 284 285 284 284 283 283 282 281 281
295 295 295 294 294 293 293 292 292 292 292 292 292 290 290 289 289 288 288 288 288 289 290 290 288 286 285 285 284 284 283 283 283 284 284 284 285 284 284 283 283 283 282 281
293 294 294 294 293 293 292 292 292 291 292 292 291 289 289 289 289 289 289 289 289 290 290 289 287 286 286 286 285 284 284 284 284 284 285 285 284 284 284 284 283 283 283 282
294 294 293 293 293 293 293 293 293 293 292 291 290 289 289 289 289 289 289 290 290 290 289 288 287 286 286 286 285 284 284 284 284 283 283 284 284 284 284 283 282 282 282 281
293 293 293 293 293 293 293 293 292 291 291 290 290 290 289 289 289 289 289 289 290 289 288 288 288 287 287 286 285 283 283 283 284 284 284 284 284 284 284 283 282 281 281 280
294 294 293 293 293 293 293 293 293 293 293 292 291 291 290 290 289 288 289 288 289 287 287 287 288 288 287 286 284 284 284 284 284 284 284 283 283 284 284 283 283 282 281 280
293 293 293 293 293 293 294 294 294 293 293 292 290 290 290 290 289 288 288 287 288 287 287 287 287 286 286 285 284 284 284 284 284 283 283 283 282 282 283 283 283 283 282 281
294 294 294 294 293 293 294 294 294 294 292 290 289 289 288 288 288 288 288 288 287 287 287 287 287 286 286 285 284 284 284 284 284 283 283 282 282 281 281 281 281 282 282 282
294 294 294 294 294 294 294 294 293 292 291 289 289 288 287 287 287 287 287 288 288 287 287 287 287 287 286 285 285 284 284 284 283 283 282 282 281 280 280 280 280 280 280 281

GFSNGP_925_thetae_027.txt.gz
Theta_e
319 315 315 315 314 314 315 315 314 314 317 317 315 315 314 312 312 312 311 308 307 305 306 306 304 303 303 303 302 302 301 300 299 299 298 297 296 296 295 294 292 290 290 289
316 317 315 314 314 316 315 315 316 316 316 316 314 313 312 312 312 311 309 308 306 306 306 305 303 302 300 300 302 301 300 300 300 298 297 298 297 295 294 292 290 290 289 289
315 316 315 314 317 316 316 315 315 315 315 314 313 312 311 310 309 308 308 306 305 305 305 303 302 301 300 299 298 297 297 299 297 297 297 297 295 293 293 291 290 290 289 289
308 308 306 318 314 315 315 314 314 315 315 313 311 309 309 307 306 306 305 305 304 304 303 302 301 299 298 297 296 296 297 296 297 296 296 295 295 294 293 290 290 290 289 289
313 313 313 315 316 315 314 316 316 316 314 311 309 309 309 306 305 305 304 304 303 301 300 299 298 297 296 295 295 295 295 296 296 296 295 295 294 292 291 290 290 289 289 288
305 311 308 313 315 313 314 311 315 314 312 310 308 305 306 305 305 305 303 300 298 296 296 296 296 295 295 295 294 294 294 294 293 294 295 294 293 292 290 290 290 288 287 286
305 306 310 313 314 314 313 311 313 311 310 309 307 305 305 305 303 301 299 297 296 296 295 295 295 295 295 294 293 293 293 292 292 292 292 293 292 291 290 290 288 287 286 284
312 314 310 314 315 312 311 313 311 309 309 308 307 306 305 300 300 298 296 296 296 295 295 295 295 295 294 294 293 292 292 292 291 291 291 292 292 291 290 288 287 286 284 283
311 310 311 314 314 313 311 310 309 309 308 307 307 303 300 299 297 297 297 296 296 295 295 295 294 294 294 293 292 292 291 290 290 289 290 291 291 290 287 286 286 285 284 283
313 315 315 314 311 310 309 308 308 308 308 304 302 300 299 296 295 296 295 294 294 294 294 294 294 294 293 292 291 291 290 289 288 288 289 290 288 287 286 285 285 284 283 282
312 315 315 314 311 309 308 308 308 307 302 301 299 298 296 295 294 294 293 294 294 294 294 294 293 293 292 292 291 290 289 288 287 286 287 288 287 286 285 285 284 284 283 282
308 314 313 312 309 308 308 308 304 301 300 299 296 295 295 294 294 294 294 293 293 293 294 293 292 291 291 291 290 290 288 287 286 285 286 286 286 285 285 284 284 283 283 282
314 312 311 309 308 309 308 303 301 300 298 296 295 294 294 293 294 293 293 293 293 293 293 293 292 291 290 289 289 288 287 286 286 285 285 285 285 284 284 283 283 283 283 282
311 309 309 309 307 305 302 301 298 297 296 294 294 294 294 293 293 292 292 292 291 292 290 290 291 291 290 288 288 287 287 286 286 285 284 284 284 283 283 283 283 283 283 282
310 310 308 307 306 302 298 297 296 295 294 293 294 294 293 293 292 291 291 290 291 290 289 288 289 289 289 288 287 287 287 286 286 285 284 284 284 284 283 283 283 283 282 282
308 308 307 307 299 297 296 296 295 294 293 293 293 293 293 291 291 290 290 290 289 288 288 288 288 289 289 287 287 286 286 285 285 285 284 284 284 284 283 283 282 282 282 282
306 304 301 299 297 296 296 295 294 293 293 293 293 293 291 291 290 289 288 288 288 288 288 288 289 289 289 287 286 286 285 285 284 284 284 284 285 284 284 282 282 283 283 282
299 298 297 296 295 295 295 294 293 293 293 293 292 292 292 291 289 289 288 288 288 288 288 288 289 290 290 287 286 285 285 284 283 283 283 284 284 284 284 283 283 283 283 281
297 296 295 295 295 294 293 293 293 293 292 292 292 292 291 290 289 289 288 288 288 288 288 289 289 290 288 287 285 285 284 283 283 283 283 283 284 284 284 284 284 283 282 282
294 294 293 293 293 292 292 292 292 292 292 291 291 291 291 289 289 288 288 288 288 289 289 289 289 289 287 286 285 284 283 283 283 283 283 284 284 284 284 284 284 283 283 283
292 293 293 293 293 293 293 292 292 292 292 292 292 291 290 289 289 289 288 288 288 288 289 290 288 288 287 286 286 285 285 284 283 283 283 284 284 284 284 284 284 282 282 282
293 293 293 292 292 292 292 293 293 293 293 293 291 291 290 290 289 289 289 289 288 289 288 289 287 288 287 286 286 285 285 284 284 284 284 283 283 283 284 284 283 282 282 281
293 293 293 293 293 293 293 293 293 292 292 291 291 291 291 290 290 289 289 289 288 288 287 288 287 287 288 287 287 286 285 284 283 283 283 284 284 283 283 283 284 283 282 281
293 293 293 292 292 292 292 293 293 293 293 293 293 292 290 289 288 289 289 288 287 287 287 287 287 287 287 287 287 286 285 283 284 283 283 284 284 283 283 283 282 283 283 282
292 292 293 293 292 292 293 293 293 293 293 293 291 290 289 288 288 287 287 287 287 287 288 287 287 287 286 287 286 285 284 284 284 284 284 284 283 282 282 282 282 281 282 283
293 293 293 293 293 293 293 293 292 293 293 292 290 289 288 288 286 286 287 287 287 287 287 287 287 287 287 286 286 286 285 285 284 284 284 284 283 282 282 281 280 280 281 281
293 294 294 294 293 293 294 293 293 292 292 291 289 288 288 286 286 287 287 286 286 286 286 286 286 287 287 287 286 286 285 285 285 284 284 284 283 282 281 280 280 279 279 279

GFSNGP_925_thetae_033.txt.gz
Theta_e
313 312 313 313 312 313 314 312 313 312 312 312 312 311 310 309 308 307 307 306 305 304 303 302 301 299 298 297 296 296 296 296 296 295 294 294 294 295 295 296 295 294 293 291
313 313 313 312 310 310 310 311 313 314 316 312 310 310 310 309 308 307 307 306 304 302 300 298 297 297 296 296 295 295 295 295 295 294 294 294 293 293 295 295 294 293 291 288
305 309 307 306 308 313 313 312 311 315 313 309 311 310 308 307 306 305 305 304 302 299 297 296 296 295 295 295 294 294 295 295 294 294 293 293 292 291 292 293 294 290 289 289
302 302 302 307 309 311 312 315 313 312 311 310 309 308 307 305 304 303 303 302 297 296 295 295 295 294 294 294 294 294 294 293 293 292 292 291 291 292 291 290 290 290 289 287
303 306 305 309 313 314 313 312 312 311 309 308 308 306 306 304 302 302 302 298 295 295 295 294 294 294 294 293 292 293 293 292 292 291 291 290 291 290 290 290 289 288 287 285
305 300 301 305 312 310 311 312 312 310 308 307 306 304 304 303 303 300 296 295 294 294 294 294 294 293 293 293 293 293 292 292 291 290 290 289 291 290 289 289 288 287 285 283
295 299 305 305 311 310 313 308 311 310 308 306 305 304 301 303 301 295 295 294 294 293 293 293 293 293 293 293 292 292 292 291 290 289 289 289 291 289 289 288 287 285 284 283
301 302 310 306 310 311 309 309 310 308 307 305 304 304 304 298 294 294 293 293 293 293 293 293 293 293 293 292 292 291 291 290 289 288 288 289 290 289 287 286 285 284 283 282
309 310 307 307 310 308 308 309 307 307 305 306 305 304 298 294 293 293 292 293 293 292 292 292 292 293 292 292 291 291 290 289 288 287 286 288 287 287 286 285 284 283 283 282
309 310 308 308 310 309 308 308 306 306 307 306 304 298 294 292 291 291 292 292 292 291 291 291 292 292 292 291 290 290 289 289 288 286 285 286 286 285 284 284 283 283 283 282
308 309 313 311 309 307 306 306 307 306 304 301 297 294 293 291 291 291 292 291 291 291 290 291 291 290 289 289 290 289 288 288 288 286 284 285 285 285 284 283 283 283 283 283
310 309 310 309 308 305 306 307 305 300 297 295 294 293 292 291 292 292 291 290 291 290 290 290 289 288 288 288 289 288 287 288 287 286 284 284 284 284 283 283 283 283 282 282
310 308 309 308 305 306 307 306 300 296 295 293 292 292 292 292 292 291 290 290 290 289 289 288 288 287 287 287 288 288 287 287 286 286 285 284 284 283 283 282 282 282 282 282
309 308 309 307 307 307 303 298 296 294 293 293 293 293 292 292 291 290 290 290 289 289 288 287 287 287 287 288 288 288 287 286 286 286 285 284 283 283 282 283 282 282 282 282
308 307 308 305 300 297 295 295 294 294 293 292 292 292 292 291 291 290 290 289 289 288 288 287 287 287 288 288 288 289 287 286 285 285 285 284 284 283 283 283 282 282 282 282
307 306 304 300 297 297 297 296 294 293 292 292 291 291 291 291 290 290 290 289 288 287 288 287 287 288 288 288 288 288 288 286 285 285 284 283 283 283 283 283 283 282 282 282
304 299 299 297 297 297 297 295 293 293 292 291 291 291 291 290 291 290 290 289 288 288 288 287 287 288 288 288 288 288 288 286 285 284 284 283 283 283 283 284 283 283 283 282
298 297 297 296 295 295 294 293 292 292 291 291 291 291 291 290 289 290 290 289 288 288 288 288 287 288 288 288 288 287 287 286 284 285 283 283 283 282 282 282 283 283 283 283
297 297 297 297 295 293 291 290 290 291 291 291 291 291 290 290 290 290 290 288 288 287 289 288 287 288 287 288 287 287 287 286 285 284 283 282 282 282 283 283 283 284 284 284
297 295 293 292 292 291 291 291 292 291 291 291 291 290 290 291 291 290 289 288 289 288 288 288 288 287 286 286 286 286 287 285 284 284 284 283 283 282 282 283 283 283 283 283
291 291 291 291 291 292 292 291 291 291 292 292 291 290 290 290 290 290 288 286 289 288 288 288 288 288 286 286 286 287 286 286 285 285 285 285 284 284 283 283 282 282 283 283
291 291 291 291 291 291 291 291 291 292 291 291 291 291 289 289 290 290 290 288 288 287 286 286 286 286 287 287 287 286 286 286 286 286 285 285 284 284 284 283 283 283 283 283
292 291 291 291 291 291 292 292 292 292 292 292 292 292 291 290 289 287 287 289 287 286 286 286 286 286 285 286 286 286 286 285 285 285 285 285 285 284 283 283 283 283 283 283
291 291 291 292 292 291 291 292 292 292 292 292 292 291 291 290 290 290 289 288 286 286 285 285 284 284 284 285 285 285 285 285 285 285 285 285 284 284 284 283 283 283 283 282
292 291 291 291 291 291 291 292 291 291 291 292 291 290 289 290 289 290 289 287 287 286 285 283 283 282 283 284 284 285 285 285 285 285 284 284 284 284 283 283 283 283 283 282
290 290 290 289 289 289 289 288 287 287 288 287 288 288 288 287 289 289 287 287 286 284 282 282 281 279 278 279 279 279 280 281 284 285 285 284 284 284 283 283 283 283 283 282
286 286 286 286 286 285 284 284 285 286 287 288 287 287 287 287 287 287 286 284 283 282 280 279 277 276 276 276 276 275 275 277 279 281 283 285 285 285 284 283 284 283 282 281

GFSNGP_925_thetae_036.txt.gz
Theta_e
312 312 312 311 311 313 313 311 312 310 310 309 312 310 308 307 306 306 305 305 304 302 302 301 298 297 297 296 295 295 295 295 295 294 293 293 292 292 291 290 292 294 293 292
314 312 311 312 309 309 310 310 310 311 311 310 309 308 308 307 306 306 305 304 303 301 299 297 296 296 295 295 294 294 294 295 295 294 293 292 292 291 291 291 291 293 292 288
309 307 305 305 307 308 310 310 309 312 310 309 310 310 308 306 306 305 304 303 302 297 296 296 295 295 294 294 294 294 293 294 293 293 292 291 291 290 291 290 290 290 289 289
301 301 301 306 308 308 310 311 309 311 310 310 310 308 306 305 304 302 301 301 298 296 295 295 294 294 294 293 293 293 293 293 292 292 291 290 290 290 290 290 289 289 288 287
302 304 304 307 310 312 312 311 311 310 309 308 306 306 307 304 301 300 300 300 295 295 294 294 294 293 293 293 293 292 293 292 291 291 290 289 289 290 289 289 288 287 286 285
300 300 300 305 309 310 310 312 310 309 308 307 306 306 308 302 301 301 300 295 294 294 293 293 293 293 293 292 292 292 292 291 291 290 289 288 289 289 288 288 288 286 285 284
293 298 303 303 309 309 313 309 309 308 306 305 307 306 303 301 302 297 294 294 293 293 293 293 293 292 292 292 292 292 291 291 290 289 288 288 288 288 288 288 287 285 284 283
301 299 309 305 310 311 309 307 308 307 305 306 303 301 302 297 293 293 292 293 292 292 292 292 292 292 292 292 292 291 290 290 290 289 288 286 288 288 287 286 285 284 284 282
307 309 306 304 308 308 306 307 307 307 305 304 304 304 298 294 294 292 292 292 292 292 291 291 291 291 291 291 291 290 290 289 289 288 287 286 286 286 286 285 284 283 283 282
308 308 307 306 306 309 307 307 306 306 305 305 305 300 296 293 291 291 291 291 291 291 290 290 290 291 290 289 288 289 289 289 288 287 287 285 285 285 285 284 283 283 283 283
306 307 308 309 308 307 307 306 306 305 304 303 298 296 294 292 291 291 291 291 290 290 289 289 290 289 288 288 288 289 288 287 287 287 286 284 284 284 284 283 283 283 283 283
308 307 308 307 308 306 306 306 305 300 298 295 295 294 292 291 291 291 290 290 290 289 289 289 288 287 287 287 287 287 288 287 287 287 286 284 284 283 283 283 282 282 282 282
308 308 306 307 306 305 306 304 299 297 296 294 293 293 292 291 291 291 290 289 289 289 289 288 287 287 287 287 287 287 287 287 287 286 286 285 285 284 283 283 282 282 282 282
307 308 310 308 308 305 300 296 294 293 294 295 293 292 292 291 291 290 289 289 289 289 288 288 287 287 287 287 287 288 288 288 287 286 285 285 285 284 283 282 282 282 282 282
307 305 305 300 296 295 295 296 297 296 293 292 292 292 291 291 290 290 290 289 289 288 288 288 287 287 287 287 287 288 288 288 288 286 285 285 284 284 283 283 283 283 282 281
304 299 297 297 297 298 297 297 296 294 292 292 291 290 291 291 290 290 290 289 288 288 288 288 287 288 287 288 287 288 288 287 287 286 285 285 284 283 283 283 283 283 283 282
299 298 298 298 297 297 296 294 294 293 292 291 290 290 290 290 290 289 289 290 289 288 288 288 288 287 287 287 287 287 287 287 287 286 285 284 284 284 283 283 282 282 283 283
297 297 297 296 295 294 293 292 291 291 290 291 291 291 290 288 288 289 290 290 289 289 289 289 288 287 287 287 286 286 287 286 286 286 285 284 284 283 282 282 282 282 282 283
297 297 296 296 296 294 291 290 290 290 290 290 290 290 290 290 291 290 290 289 289 288 290 288 288 288 287 287 286 286 286 286 285 286 285 285 283 282 282 282 282 282 283 283
296 296 293 291 291 291 291 290 291 291 290 290 291 291 291 291 290 289 289 288 289 290 290 288 287 288 288 287 286 286 286 286 286 285 285 284 283 283 283 283 282 282 282 282
290 290 290 290 291 291 291 291 291 291 291 291 290 290 289 289 290 290 286 284 291 290 289 287 286 286 286 286 286 285 286 286 285 285 284 284 284 284 284 284 284 283 283 282
291 291 291 291 291 290 291 291 291 291 291 291 291 291 290 290 290 289 289 287 290 289 288 286 286 285 284 284 284 284 285 286 286 285 284 284 283 283 283 284 283 284 284 283
290 290 290 290 290 290 291 291 291 290 290 291 290 291 291 290 289 286 286 289 289 288 286 286 285 284 284 284 284 284 284 284 284 284 284 284 284 283 283 283 283 283 283 283
291 290 290 290 290 290 288 289 289 288 288 288 288 289 289 288 288 287 287 289 289 288 286 285 284 283 282 282 282 283 284 284 284 284 284 284 284 283 283 283 282 282 282 283
289 289 288 288 287 286 285 284 284 285 284 285 285 286 286 287 286 287 287 286 287 286 285 284 282 281 280 278 278 277 277 277 277 278 279 283 284 284 284 284 283 282 282 282
285 285 285 285 284 282 281 281 281 282 282 283 283 284 285 286 286 286 287 286 286 285 283 282 280 278 277 277 276 275 274 273 274 275 276 277 279 282 283 283 283 283 283 282
282 282 281 281 280 278 277 278 279 279 279 280 281 281 283 285 286 286 285 284 284 282 280 279 277 276 276 275 275 274 273 273 272 273 273 274 275 277 280 283 283 283 282 282

GFSNGP_925_thetae_039.txt.gz
Theta_e
312 312 312 311 312 315 315 314 318 314 313 313 313 316 313 311 309 308 308 307 306 305 303 301 299 298 296 296 295 294 294 294 295 295 294 293 292 292 291 291 291 291 292 292
315 312 311 313 311 311 313 312 313 312 313 311 311 311 311 310 309 309 308 307 305 303 300 298 297 296 295 294 294 294 293 294 295 294 293 292 292 291 291 291 290 290 290 289
315 308 307 312 311 312 311 311 313 315 314 312 312 312 312 310 309 309 307 305 304 301 298 297 296 294 294 294 294 293 293 294 293 292 292 291 291 290 290 290 290 289 289 289
310 304 309 310 309 309 310 310 310 311 312 312 312 310 310 310 310 308 305 304 302 298 296 295 294 294 294 293 293 292 292 293 292 292 291 290 290 289 290 289 289 289 288 286
314 309 307 308 307 311 313 313 311 311 311 310 309 310 311 308 307 307 304 303 299 296 295 294 294 293 293 293 292 292 292 292 291 291 290 289 289 289 289 288 288 288 286 285
307 310 310 308 307 310 311 317 310 312 311 310 310 316 315 308 305 302 302 297 294 294 293 293 293 293 292 291 291 292 291 291 291 290 289 289 288 288 288 288 287 286 285 284
302 313 310 306 307 309 314 314 309 311 310 309 312 313 307 305 303 301 296 293 293 293 293 292 292 292 291 291 292 291 291 290 290 289 289 288 287 288 289 288 286 286 284 284
304 310 315 306 311 315 314 308 309 309 309 310 306 304 304 303 297 294 293 292 292 292 292 292 291 291 291 291 291 291 290 289 289 289 288 288 287 287 287 286 285 285 284 283
311 315 309 306 310 309 308 309 310 309 308 308 306 305 301 297 295 294 292 292 292 292 291 291 290 290 291 291 290 289 288 289 289 288 288 287 286 286 286 286 285 284 284 283
310 310 308 308 308 307 309 309 309 308 308 306 307 303 297 294 292 291 292 292 291 291 290 290 289 290 289 289 288 288 288 289 288 287 287 287 285 285 285 285 284 284 283 283
309 309 308 308 309 310 308 308 308 307 306 306 301 297 295 293 293 292 292 291 290 290 290 289 289 289 288 287 287 287 288 288 288 287 287 287 285 285 284 284 284 283 283 283
313 308 309 309 308 308 309 309 307 303 299 297 295 294 294 294 293 292 291 290 290 290 289 289 289 288 287 287 287 287 287 288 288 288 287 286 285 285 284 283 283 282 282 282
310 309 308 308 307 307 307 303 299 297 295 295 296 296 294 292 292 291 290 290 290 289 289 289 288 287 287 287 287 287 287 287 288 287 287 287 286 285 285 284 283 282 282 282
308 308 309 306 305 298 296 296 296 296 296 295 292 292 294 292 291 291 290 290 289 289 289 288 288 287 287 287 287 287 287 288 287 287 287 286 286 285 285 285 284 283 282 282
304 301 299 297 297 297 297 296 295 294 292 292 292 293 291 291 291 291 290 289 289 289 288 288 287 288 288 287 287 287 287 287 287 287 286 286 285 284 284 284 283 283 283 283
298 298 299 299 298 297 296 295 294 293 293 294 293 291 290 291 291 290 290 290 289 289 289 288 288 289 288 287 287 287 287 286 287 287 286 285 285 284 284 284 283 283 283 283
299 299 298 297 297 296 296 295 295 294 294 292 291 290 290 290 290 289 290 289 289 289 289 288 289 289 288 287 287 286 286 286 286 286 285 285 285 284 284 284 283 283 282 282
298 297 297 296 296 295 294 294 293 292 291 290 290 290 290 289 288 289 289 289 289 289 290 290 290 288 288 287 287 287 286 285 285 285 285 285 284 284 284 283 283 282 282 282
297 297 297 296 296 295 292 290 290 290 290 290 290 290 289 289 288 289 290 289 289 288 291 291 290 288 287 287 287 286 286 285 285 285 285 284 283 283 283 282 282 282 282 282
296 295 292 291 290 290 290 290 291 290 290 290 289 289 290 291 291 290 289 287 288 289 289 289 288 287 287 286 286 285 285 285 285 285 284 284 283 283 283 283 283 282 282 282
290 290 289 289 289 290 290 290 289 290 290 290 290 289 288 288 289 289 285 286 289 288 288 288 287 287 286 285 285 284 284 284 284 285 285 284 284 283 283 283 283 283 283 283
290 290 289 289 289 289 289 289 289 289 288 288 288 287 286 286 287 287 287 287 288 287 288 288 287 286 285 284 284 284 284 284 284 284 285 285 284 284 284 284 283 283 283 282
290 289 289 289 288 287 287 286 285 284 284 284 284 284 284 284 284 285 286 287 286 286 286 286 286 285 284 283 282 282 282 283 284 284 284 284 284 284 284 284 283 283 283 283
289 288 287 286 285 284 283 282 282 282 282 282 282 283 282 283 284 284 285 285 285 285 285 285 284 283 283 282 280 278 277 276 276 276 277 277 279 281 283 283 283 283 283 283
285 285 284 283 283 282 280 279 280 280 280 280 280 280 280 280 281 283 284 285 285 285 284 284 282 282 280 278 277 276 275 273 273 273 273 273 275 276 278 279 281 282 283 283
282 282 281 281 279 278 277 276 277 277 276 276 278 277 277 277 278 280 280 283 284 284 283 280 278 277 276 275 275 274 273 272 271 271 270 270 270 271 272 273 276 280 283 283
278 276 277 277 276 274 273 273 273 273 273 274 274 273 274 275 276 277 277 280 281 279 276 275 274 273 273 272 272 271 271 270 270 270 270 269 269 268 270 270 272 274 276 278

GFSNGP_925_thetae_045.txt.gz
Theta_e
321 321 321 321 320 320 322 321 323 319 316 315 315 316 317 317 318 320 322 322 320 319 317 314 312 310 307 306 304 303 301 300 299 298 298 298 297 296 296 295 295 295 294 294
323 321 321 321 320 319 319 319 318 317 317 317 317 317 316 316 318 319 321 320 319 317 315 313 310 307 306 304 302 300 299 298 297 297 297 297 296 295 295 294 294 294 294 293
323 318 318 322 320 319 318 318 319 320 319 318 318 316 316 316 318 318 319 319 318 316 314 312 309 306 304 302 300 299 298 297 296 296 296 295 295 294 294 294 294 293 292 291
323 317 328 316 314 315 316 317 317 317 317 316 316 317 317 317 318 318 318 318 317 315 312 308 306 303 302 300 299 298 296 295 295 295 295 294 294 294 294 293 293 292 291 291
329 318 317 316 313 314 314 315 315 316 315 315 316 317 317 317 316 317 317 316 315 312 308 305 302 300 300 299 298 296 295 294 294 294 294 294 294 293 293 293 292 290 290 290
320 329 330 318 315 315 315 316 314 314 315 315 316 318 318 317 315 316 315 314 312 308 304 302 300 299 299 298 297 295 294 294 294 293 293 293 293 293 292 292 290 290 290 289
325 329 323 317 314 315 317 318 315 315 315 316 315 319 317 315 315 315 314 312 308 303 301 300 299 298 297 295 294 294 294 293 293 293 293 293 293 292 292 291 290 289 289 288
327 325 327 314 315 317 320 315 316 316 316 317 317 317 314 315 315 313 310 305 302 300 299 299 297 295 295 294 293 294 293 293 292 292 293 293 292 292 291 290 289 289 288 288
321 321 317 314 314 316 315 315 316 316 316 316 316 316 314 314 311 307 303 301 299 298 297 296 295 293 293 293 293 292 292 292 292 292 293 292 291 291 290 289 289 289 288 288
317 315 315 315 315 315 315 316 316 315 315 315 316 315 313 310 305 302 299 299 298 297 296 295 293 293 293 293 292 291 291 292 292 292 291 291 291 291 289 289 288 288 288 288
317 315 315 315 316 316 316 315 315 315 313 314 314 313 309 304 301 300 298 296 295 294 295 295 293 293 292 292 291 291 291 291 291 291 291 291 291 290 289 288 288 288 288 287
319 317 317 317 314 313 314 313 312 311 308 307 307 304 302 300 297 296 295 294 295 295 294 293 292 292 292 291 291 291 291 291 291 291 291 291 290 289 289 288 288 287 286 285
317 315 315 313 309 308 308 307 307 305 303 301 299 297 296 295 294 294 294 295 294 293 292 292 292 292 292 291 291 291 291 291 290 291 291 290 289 288 289 289 289 287 286 286
311 312 312 309 308 305 303 301 299 298 298 297 296 296 295 295 294 295 295 294 293 292 292 292 292 292 292 292 292 291 291 290 290 291 291 290 289 289 288 289 289 289 288 287
308 308 307 305 302 301 299 298 298 297 297 297 297 297 296 296 295 294 293 293 292 292 292 292 292 292 292 292 292 291 291 291 291 291 290 289 287 288 288 288 288 288 288 286
305 304 302 302 300 299 299 299 300 299 298 298 298 296 294 293 293 293 292 292 292 292 292 291 290 291 292 292 292 292 292 292 291 291 290 288 288 288 288 288 288 288 288 287
303 302 300 300 300 300 300 299 299 298 296 294 293 292 292 292 292 293 292 292 291 290 290 290 291 291 291 291 291 292 292 291 291 290 289 289 288 288 288 288 288 288 288 287
301 300 300 301 300 299 298 295 294 293 293 292 290 291 291 290 291 292 292 291 290 289 290 291 292 291 291 290 290 290 291 291 290 289 289 289 288 288 288 287 287 287 287 287
300 299 299 298 296 295 294 294 293 293 291 290 290 290 290 290 290 289 288 288 288 289 290 289 289 289 289 288 289 289 289 289 288 288 288 288 287 286 286 287 287 287 287 287
297 295 294 293 293 294 293 292 293 292 292 288 288 288 287 287 286 286 286 287 287 288 287 287 286 287 287 287 288 288 288 287 288 288 287 287 286 286 286 287 287 286 286 286
294 294 293 292 292 290 289 289 288 289 287 285 285 285 284 284 285 285 286 286 285 285 285 285 285 286 286 286 286 286 288 287 287 287 286 286 286 286 286 286 285 285 286 286
293 292 292 292 292 291 288 286 286 285 284 283 283 283 282 283 283 283 283 283 283 281 282 282 282 283 284 285 285 285 286 286 286 285 285 284 283 283 283 283 283 284 284 285
293 292 290 290 290 288 286 284 283 284 283 282 282 281 281 281 281 281 282 281 280 280 279 280 282 281 281 282 283 284 284 283 282 282 281 280 280 280 280 279 279 280 280 281
293 292 290 287 286 285 285 283 282 282 281 280 280 279 279 279 279 279 279 278 278 278 279 280 277 276 278 279 280 280 280 280 278 277 277 277 277 277 277 277 277 277 277 277
289 287 286 285 286 285 283 281 281 281 280 279 279 279 278 277 277 277 277 277 276 276 276 276 274 273 275 275 275 275 275 275 274 274 274 274 274 274 274 274 274 274 274 275
288 287 284 282 281 281 280 279 279 279 278 278 277 276 277 276 276 275 275 275 274 274 274 273 272 271 271 271 272 271 271 271 270 270 270 270 271 271 271 271 270 271 271 272
282 282 283 282 280 278 277 277 277 276 276 276 274 276 276 275 275 274 274 274 273 273 272 272 271 270 269 269 269 269 268 268 267 267 267 267 268 268 268 268 268 269 269 269

GFSNGP_925_thetae_048.txt.gz
Theta_e
319 320 320 322 322 321 320 322 325 324 320 319 318 319 318 319 319 319 319 322 323 323 322 320 318 316 313 309 307 305 304 303 300 299 299 299 298 298 297 296 296 295 295 295
325 323 321 321 320 319 319 319 319 320 320 319 319 319 318 317 316 317 318 321 322 322 320 318 316 313 309 307 306 305 302 300 299 298 298 298 297 296 295 295 295 294 294 294
329 321 319 321 321 319 318 319 319 320 321 319 318 317 317 317 317 317 317 318 321 320 319 317 313 311 307 306 304 300 300 299 298 297 297 296 295 295 295 294 294 294 294 292
331 318 325 318 316 315 315 315 315 315 316 316 318 318 317 317 317 318 318 318 318 318 317 314 310 308 306 304 300 300 299 297 295 295 295 295 295 295 294 294 294 293 292 291
331 324 319 317 315 315 316 316 316 315 315 315 316 316 319 317 316 315 317 317 317 316 313 309 307 304 301 301 300 298 296 295 295 295 294 294 294 294 294 294 293 292 291 290
325 331 327 321 316 315 315 318 315 314 315 316 315 321 320 317 315 315 315 316 315 310 308 305 301 301 300 298 297 296 295 295 294 294 294 294 294 294 293 293 292 291 291 290
327 329 327 318 316 315 319 324 317 316 316 318 318 320 317 316 316 315 315 313 308 306 304 301 300 299 298 297 296 295 295 294 294 293 293 293 293 293 293 292 292 290 290 289
331 326 326 315 314 319 321 318 317 317 317 319 318 318 317 315 315 314 308 305 303 301 300 299 297 295 294 295 295 294 294 293 293 293 292 293 293 293 292 292 290 290 289 289
326 327 320 316 317 317 317 317 317 317 316 316 316 316 315 314 311 307 303 300 299 298 297 296 295 294 294 294 293 293 293 292 292 292 292 293 292 292 291 291 289 289 289 289
321 317 316 316 317 317 316 316 316 316 316 315 316 316 314 311 304 301 300 298 297 296 296 295 294 295 295 294 293 292 292 292 292 292 292 292 291 292 291 291 290 289 289 289
319 316 317 318 317 316 316 315 315 313 311 312 314 312 307 303 300 298 296 295 295 295 295 295 295 294 293 293 292 292 292 292 292 292 292 292 292 291 291 290 290 289 289 288
325 319 319 316 312 312 312 310 309 307 304 303 303 302 299 298 297 295 295 295 296 296 296 294 293 293 292 292 292 292 292 292 292 292 291 291 291 291 290 289 289 289 289 288
319 316 315 310 309 308 308 306 304 303 301 300 298 297 296 296 296 295 296 296 295 294 293 293 293 292 292 292 292 292 292 292 291 291 291 292 291 290 289 289 289 289 289 289
312 313 312 311 307 305 303 301 300 299 299 298 297 297 297 296 295 296 296 295 293 293 293 293 293 293 293 293 292 292 292 292 292 291 291 291 291 290 289 288 288 288 288 289
309 309 308 305 303 301 300 300 300 299 298 298 298 297 296 295 295 294 293 293 293 292 292 292 292 291 290 291 292 292 292 292 292 292 292 292 291 290 288 288 288 288 288 288
307 306 305 303 302 300 300 300 299 299 299 297 295 294 294 293 293 293 293 293 292 291 290 290 290 291 292 292 292 292 291 292 292 292 292 291 291 289 289 289 288 288 288 288
305 303 302 301 300 300 300 299 297 296 295 294 293 291 292 291 292 292 292 291 290 289 288 289 291 291 289 290 290 290 290 290 290 290 291 290 290 289 289 289 288 288 288 287
303 301 301 301 301 299 297 295 295 294 293 291 290 290 290 289 291 290 288 287 286 287 288 289 288 287 287 286 287 287 287 288 288 289 289 289 289 289 289 287 287 287 287 287
301 300 299 299 297 296 295 294 293 292 290 289 289 288 287 287 286 286 287 286 287 287 286 285 284 284 285 286 287 287 287 287 287 287 289 288 288 288 288 287 287 287 287 287
298 297 295 295 294 293 293 292 293 291 288 285 286 284 284 283 284 285 284 285 285 283 282 282 282 282 282 283 283 284 285 286 286 285 287 287 288 287 286 286 287 287 286 287
296 294 293 292 290 289 289 288 287 286 285 283 283 283 282 282 283 283 284 283 283 280 280 279 280 281 280 279 280 282 284 285 285 285 286 287 285 284 284 284 283 284 283 283
294 292 292 292 291 289 286 286 285 283 283 281 281 281 281 282 281 282 281 281 279 279 278 278 278 276 276 277 280 281 281 282 282 282 282 282 281 280 280 280 279 279 279 279
293 292 291 291 290 287 285 283 284 282 281 280 281 280 280 280 280 280 280 278 277 275 276 277 274 274 274 275 275 276 276 278 276 276 277 277 278 278 277 277 276 276 276 276
293 292 290 287 286 286 286 283 283 282 281 281 280 279 278 279 278 278 277 276 275 274 274 274 273 272 271 272 272 272 273 273 272 272 272 273 274 274 274 273 273 273 273 273
290 288 287 287 287 285 283 281 282 282 280 280 279 278 278 278 277 276 276 275 274 274 273 273 272 271 270 270 270 270 270 270 269 269 269 269 269 270 270 270 269 269 270 270
289 287 284 283 282 281 280 280 280 280 278 279 277 276 277 277 276 275 275 274 274 273 272 272 271 271 270 269 269 268 268 267 267 267 267 267 267 267 267 267 267 267 268 268
283 284 284 283 280 279 278 278 278 277 277 276 275 275 276 275 275 274 273 273 272 272 271 270 270 269 269 268 268 267 267 266 265 266 265 265 265 265 265 265 265 266 266 267

GFSNGP_925_thetae_051.txt.gz
Theta_e
318 319 320 320 321 320 320 320 319 319 320 318 316 314 314 315 316 316 318 319 319 318 319 319 318 316 310 307 306 306 304 303 301 299 298 298 298 298 297 297 296 295 295 294
323 322 319 318 318 319 317 318 317 317 318 316 314 313 312 312 312 313 313 317 318 319 318 317 315 309 307 306 305 305 300 299 298 298 298 298 297 296 295 295 295 294 294 294
324 315 316 314 317 317 317 317 317 317 315 314 314 314 313 313 313 314 314 315 317 316 316 315 310 307 306 305 303 300 299 299 297 297 297 296 296 295 295 295 294 294 294 294
317 313 313 317 315 313 314 314 313 313 314 314 313 313 312 311 311 312 314 314 314 312 309 308 307 307 304 300 300 299 298 295 295 295 295 295 294 295 294 294 294 294 293 293
314 315 317 316 314 315 314 314 313 313 312 313 313 314 314 312 311 311 312 311 309 307 305 304 302 301 301 300 298 295 295 295 295 295 295 294 294 294 294 294 293 293 292 292
315 316 312 316 314 314 313 314 314 313 314 315 312 314 314 312 312 310 309 306 303 300 299 299 297 297 297 297 296 295 295 295 295 295 294 294 293 293 293 293 293 292 291 290
309 311 316 319 314 314 311 313 315 314 314 315 317 315 313 312 305 304 303 300 299 298 297 296 296 296 295 295 294 295 295 295 295 294 294 293 292 293 293 293 292 292 291 290
316 320 319 314 314 314 316 314 314 313 313 314 314 314 312 307 302 299 298 297 296 295 294 294 295 295 295 295 296 295 295 294 293 293 292 292 292 292 293 292 292 291 290 289
318 317 317 315 316 315 314 314 314 314 313 314 314 314 307 300 299 298 297 296 296 296 295 294 294 295 295 294 294 293 293 293 292 292 292 292 292 292 292 291 291 290 290 289
315 317 316 317 315 314 314 314 311 309 309 312 313 309 301 300 298 297 296 296 296 295 295 295 295 295 295 295 293 293 292 292 291 292 292 292 292 291 292 292 291 290 289 289
316 318 316 313 313 313 311 309 305 303 303 303 302 300 298 297 296 295 295 295 296 296 296 295 295 295 294 293 292 292 292 292 292 292 291 292 292 292 291 291 290 289 289 289
314 316 314 311 310 308 306 305 304 302 300 299 299 298 297 296 295 295 295 296 296 296 295 293 292 292 292 292 292 292 292 292 291 291 291 291 291 290 291 291 290 289 289 289
316 310 308 306 305 304 303 302 301 299 298 296 295 295 295 295 296 296 295 295 295 293 292 292 292 292 292 291 291 291 292 292 292 292 291 291 291 291 291 290 290 290 289 288
310 308 307 306 303 301 300 299 298 297 297 296 296 296 295 295 295 295 294 293 293 292 291 291 290 290 290 290 291 291 292 292 292 292 292 291 291 290 290 290 289 289 289 288
306 306 303 301 300 300 299 298 298 297 297 296 296 294 293 293 292 293 292 292 291 290 288 287 288 290 290 290 290 291 291 290 290 290 290 290 290 290 290 290 289 288 288 288
304 302 301 300 300 300 299 297 296 297 295 293 292 292 292 292 292 292 290 287 286 285 287 288 289 288 286 286 286 286 286 287 287 287 287 288 288 288 289 289 288 288 288 288
303 302 301 300 300 299 299 297 295 294 292 290 289 289 289 290 288 286 286 284 286 287 286 285 283 282 282 284 284 285 285 286 286 286 286 286 287 287 287 288 288 288 287 287
301 300 300 300 298 296 295 293 291 290 289 288 288 286 285 284 285 285 284 285 286 284 282 281 280 280 280 281 282 281 281 282 283 284 285 285 285 285 287 287 287 287 286 286
301 301 300 298 295 294 293 291 289 287 287 286 285 285 283 283 284 283 284 284 281 280 280 279 278 279 279 278 278 278 279 281 282 283 284 284 284 285 287 287 286 286 286 286
296 295 294 293 292 292 291 290 286 284 284 283 281 280 282 283 282 282 282 282 279 278 278 277 278 275 275 275 277 278 278 278 279 281 282 282 283 283 283 282 281 281 280 280
293 291 290 289 288 288 287 286 285 283 282 281 280 280 281 281 281 280 280 279 278 276 275 277 274 273 273 274 274 274 274 275 274 275 276 276 277 279 278 278 277 277 277 276
292 290 289 287 286 286 284 283 282 281 281 280 279 279 279 280 279 279 279 277 276 274 274 274 273 272 271 271 271 271 271 272 271 271 271 272 273 274 275 274 274 274 273 274
291 291 289 287 285 284 284 283 281 281 281 280 279 278 278 279 278 277 276 276 274 274 273 273 272 271 270 269 269 269 269 269 268 268 268 269 270 270 271 270 270 270 270 270
290 289 287 286 284 283 282 283 281 280 281 280 278 278 278 277 276 276 275 274 274 273 272 272 271 271 270 269 268 268 268 267 267 266 266 267 267 267 267 267 267 267 268 268
288 287 286 286 283 282 281 281 281 279 279 279 277 276 277 277 276 275 274 273 273 272 272 271 270 269 269 268 268 267 267 266 266 266 265 265 264 265 264 265 265 266 266 267
285 283 282 281 280 279 279 279 278 278 278 277 276 275 276 275 275 274 273 272 271 271 270 269 269 268 267 267 267 267 266 265 264 264 264 263 263 262 262 263 263 264 264 265
283 282 280 279 278 278 278 277 276 276 276 275 274 274 275 274 273 272 271 270 269 269 269 268 268 267 266 266 266 266 265 264 263 263 263 262 261 261 261 261 262 262 263 264